sat.trackr.live / text

‹ back to catalog

STARLINK-32821

NORAD 63078 · 2025-037B

PAYLOAD ACTIVE UNKNOWN

§ Identity

Operator
Country
US
Launch date
2025-02-23
Launch site
AFWTR
Launch vehicle
Mass (kg)
RCS (m²)

Purposes: comms

External: N2YO · Heavens-Above · Gunter

§ Orbital elements

Epoch: 2026-05-25T03:42:56.628576Z

Period
96.11 min
Inclination
70.0006°
Eccentricity
0.0003996
Mean motion
14.98335488 rev/d
Perigee alt
569.3 km
Apogee alt
574.8 km
Semi-major
6,950.2 km
B*
1.4844e-4
RAAN
161.7437°
Arg perigee
266.2990°
Mean anomaly
93.7712°
Rev number
7,003

§ Raw data

STARLINK-328211 63078U 25037B   26145.15482209  .00001679  00000+0  14844-3 0  99962 63078  70.0006 161.7437 0003996 266.2990  93.7712 14.98335488 70031

JSON: /api/v1/satellites/63078 · /tle

For live sub-satellite position, see the globe view (requires WebGL).

§ Visibility from observer

Set your observer location to see the next 7 days of passes ≥ 10°. The values pass through the URL so the page stays shareable.

No JS? Fill the form by hand. The geolocation button needs JavaScript.